COSMOS 2398 (27818 NORAD) Tracking and Keplerian Element Data

This shows tracking and keplerian element data for the satellite.

Feedback or suggestion? Click here.




ElementValue
Catalog27818
NameCOSMOS 2398
Epoch Orbit12918
Epoch Day354.15388358
Epoch Year2025
RAAN267.2349
Inclination82.9484
Eccentricity0.0032724
Argument of Perigee92.0261
Mean Anonmoly20.4538
Mean Motion13.72386473
Decay Rate6.7E-07
L11 27818U 03023A 25354.15388358 .00000067 00000+0 55883-4 0 9999
L22 27818 82.9484 267.2349 0032724 92.0261 20.4538 13.72386473129181



Live tracking and technical data element details for COSMOS 2398 (NORAD 27818). COSMOS 2398 can be tracked NOW for your location showing map with azimuth and elevation plus other details from your city location.







IsCatalogInMostPopularTable: catalog: 27818, numindb: 455
Update: records affected: 1



GetName: 27818 COSMOS 2398

Hit Count: updated at: Thu, 21 May 2026 11:03:43 GMT